x

West Santa Barbara 38 Nm West Of Santa Barbara, Ca (46054) Weather Station

6:10 - Mon 25th Sep 2017 All times are PDT. -7 hours from GMT.

  • Wind
    13mph, 18mph gusts
  • Air Temp 62°f
  • Sea Pressure 1009.2mb
  • West Santa Barbara  38 Nm West Of Santa Barbara, Ca
  • West Santa Barbara  38 Nm West Of Santa Barbara, Ca

More Historic Weather Station data

Upgrade to MSW Pro to gain access to the past 30 days of data for over 8000 Wavebouys and Weather Stations around the globe.

Join

Comparision Forecast

View Surf forecast
   
lun. 09/25 6:10  -   -   -  13 18 mph 1009.2mb - 62f
6:00  -   -   -  13 18 mph 1009.2mb 60f 62f
5:50 4ft 8s 5s 13 18 mph 1009.2mb 61f 62f
5:40 4ft  -  5s 16 18 mph 1009.1mb 61f 62f
5:30  -   -   -  16 18 mph 1009.2mb 61f 62f
5:20  -   -   -  16 18 mph 1009.1mb 60f 62f
5:10  -   -   -  16 20 mph 1009.3mb 60f 62f
5:00  -   -   -  16 18 mph 1009.4mb 60f 62f
4:50 3.5ft 8s 5s 16 18 mph 1009.4mb 60f 62f
4:40  -   -   -  16 18 mph 1009.4mb 60f 62f
4:30  -   -   -  16 18 mph 1009.4mb 60f 62f
4:20  -   -   -  16 18 mph 1009.4mb 60f 62f
4:10  -   -   -  16 18 mph 1009.6mb 60f 62f
4:00  -   -   -  16 20 mph 1009.6mb 60f 62f
3:50 4ft 7s 5s 18 20 mph 1009.5mb 60f 62f
3:40 4ft  -  5s 18 20 mph 1009.4mb - 62f
3:30  -   -   -  18 20 mph 1009.5mb 60f 62f
3:20  -   -   -  18 20 mph 1009.6mb 60f 62f
3:10  -   -   -  18 22 mph 1009.6mb 61f 62f
3:00  -   -   -  16 20 mph 1009.6mb 61f 62f
2:50 4ft 8s 5s 16 20 mph 1009.8mb - 62f
2:40 4ft  -  5s 16 22 mph 1009.8mb - 62f
2:30  -   -   -  16 20 mph 1009.9mb 61f 62f
2:20  -   -   -  16 20 mph 1010mb 61f 62f
2:10  -   -   -  16 18 mph 1010.2mb 61f 62f
2:00  -   -   -  16 18 mph 1010.4mb - 62f
1:50 4ft 8s 5s 16 18 mph 1010.5mb 60f 62f
1:40 4ft  -  5s 16 20 mph 1010.5mb 60f 63f
1:30  -   -   -  16 25 mph 1010.5mb 60f 62f
1:20  -   -   -  16 20 mph 1010.6mb 61f 62f
1:10  -   -   -  16 18 mph 1010.7mb 61f 62f
1:00  -   -   -  16 18 mph 1010.8mb 61f 62f
12:50 4ft 8s 5s 16 18 mph 1010.8mb 61f 62f
12:40 4ft  -  5s 16 18 mph 1011mb 61f 62f
12:30  -   -   -  13 18 mph 1011mb 61f 62f
12:20  -   -   -  13 18 mph 1011mb 61f 62f
12:10  -   -   -  16 18 mph 1011.1mb 60f 62f
12:00  -   -   -  16 20 mph 1011mb 60f 62f
11:50 3.5ft 8s 5s 16 18 mph 1011.1mb 60f 62f
11:40 3.5ft  -  5s 16 18 mph 1011.1mb 60f 62f
11:30  -   -   -  16 18 mph 1011.1mb 60f 62f
11:20  -   -   -  16 18 mph 1011.2mb 60f 62f
11:10  -   -   -  16 18 mph 1011.2mb 60f 62f
11:00  -   -   -  13 18 mph 1011.1mb 60f 62f
10:50 3.5ft 8s 6s 16 18 mph 1011.2mb 60f 63f
10:40 3.5ft  -  6s 16 18 mph 1011.2mb 60f 63f
10:30  -   -   -  13 16 mph 1011.2mb 60f 63f
10:20  -   -   -  13 16 mph 1011.3mb 60f 63f
10:10  -   -   -  11 13 mph 1011.3mb 60f 63f
10:00  -   -   -  13 16 mph 1011.2mb 60f 63f
9:50 3.5ft 8s 6s 13 16 mph 1011.2mb 60f 64f
9:40 3.5ft  -  6s 13 16 mph 1011.2mb 60f 63f
9:30  -   -   -  11 13 mph 1011.2mb 60f 63f
9:20  -   -   -  11 13 mph 1011.2mb 61f 62f
9:10  -   -   -  9 11 mph 1011.3mb 60f 62f
9:00  -   -   -  9 11 mph 1011.3mb 60f 62f
8:50 3.5ft 9s 6s 9 13 mph 1011.3mb 60f 61f
8:40  -   -   -  9 13 mph 1011.3mb 60f 62f
8:30  -   -   -  7 11 mph 1011.2mb 60f 62f
8:20  -   -   -  7 9 mph 1011mb 60f 62f
8:10  -   -   -  7 9 mph 1010.9mb 60f 62f
8:00  -   -   -  7 9 mph 1011mb 60f 62f
7:50 3.5ft 8s 6s 4 7 mph 1011mb 60f 62f
7:40  -   -   -  7 9 mph 1010.9mb 60f 62f
7:30  -   -   -  4 7 mph 1010.8mb 60f 62f
7:20  -   -   -  4 7 mph 1010.9mb 60f 63f
7:10  -   -   -  4 4 mph 1010.8mb 60f 63f
7:00  -   -   -  4 7 mph 1010.7mb 60f 62f
6:50 3.5ft 8s 6s 2 2 mph 1010.7mb 60f 62f
6:40 3.5ft  -  6s 2 4 mph 1010.7mb - 62f
6:30  -   -   -   -  4 mph 1010.5mb 60f 62f
6:20  -   -   -  2 2 mph 1010.2mb 60f 62f
6:10  -   -   -  2 4 mph 1010.1mb 60f 62f
6:00  -   -   -  2 4 mph 1010.1mb 60f 62f
5:50 3.5ft 8s 6s 4 7 mph 1010mb 60f 63f
5:40  -   -   -  4 7 mph 1010mb 60f 63f
5:30  -   -   -  2 4 mph 1010mb 60f 63f
5:20  -   -   -  4 4 mph 1010mb 60f 63f
5:10  -   -   -  4 4 mph 1010.1mb 60f 62f
5:00  -   -   -  4 4 mph 1010mb 60f 62f
4:50 3.5ft 9s 6s 4 7 mph 1009.9mb 60f 62f
4:40  -   -   -  4 7 mph 1009.9mb 60f 62f
4:30  -   -   -  4 7 mph 1009.9mb 60f 62f
4:20  -   -   -  4 7 mph 1010.1mb 60f 62f
4:10  -   -   -  7 7 mph 1010mb 60f 62f
4:00  -   -   -  7 7 mph 1009.9mb 60f 62f
3:50 3.5ft 9s 6s 7 7 mph 1010mb 60f 62f
3:40 3.5ft  -  6s 7 9 mph 1010.1mb 60f 62f
3:30  -   -   -  7 9 mph 1010.2mb 60f 61f
3:20  -   -   -  7 9 mph 1010.2mb 60f 61f
3:10  -   -   -  7 9 mph 1010.3mb 60f 61f
3:00  -   -   -  7 9 mph 1010.3mb - 61f
2:50 3.5ft 8s 6s 7 9 mph 1010.4mb 60f 61f
2:40 3.5ft  -  6s 7 9 mph 1010.4mb 60f 61f
2:30  -   -   -  7 9 mph 1010.5mb 60f 61f
2:20  -   -   -  7 9 mph 1010.6mb 60f 61f
2:10  -   -   -  7 9 mph 1010.6mb 60f 61f
2:00  -   -   -  9 11 mph 1010.7mb 60f 61f
1:50 3.5ft 8s 5s 9 11 mph 1010.7mb 60f 60f
1:40  -   -   -  9 11 mph 1010.8mb 60f 60f
1:30  -   -   -  9 11 mph 1010.9mb - 61f
1:20  -   -   -  11 13 mph 1011mb 60f 60f
1:10  -   -   -  11 13 mph 1011mb 60f 60f
1:00  -   -   -  11 16 mph 1011mb 60f 61f
12:50 3.5ft 9s 5s 13 16 mph 1011mb 60f 61f
12:40 3.5ft  -  5s 13 16 mph 1011.2mb 60f 61f
12:30  -   -   -  16 20 mph 1011.2mb 60f 61f
12:20  -   -   -  16 18 mph 1011.4mb 60f 61f
12:10  -   -   -  18 22 mph 1011.4mb 60f 61f
12:00  -   -   -  18 22 mph 1011.4mb 60f 61f
dim. 09/24 11:50 4ft 9s 5s 18 22 mph 1011.4mb 60f 61f
11:40  -   -   -  18 25 mph 1011.5mb 60f 61f
11:30  -   -   -  18 22 mph 1011.5mb 60f 61f
11:20  -   -   -  18 20 mph 1011.6mb 61f 61f
11:10  -   -   -  16 20 mph 1011.7mb - 62f
11:00  -   -   -  16 20 mph 1011.7mb 61f -
10:50 4.5ft 9s 6s 18 20 mph 1011.6mb 61f 62f
10:40 4.5ft  -  6s 18 20 mph 1011.6mb 61f 62f
10:30  -   -   -  16 20 mph 1011.7mb 61f 62f
10:20  -   -   -  16 20 mph 1011.7mb 61f 62f
10:10  -   -   -  16 20 mph 1011.8mb 61f 62f
10:00  -   -   -  13 18 mph 1011.8mb - 62f
9:50 4.5ft 8s 6s 16 18 mph 1011.8mb 61f 62f
9:40 4.5ft  -  6s 16 20 mph 1011.8mb 61f 62f
9:30  -   -   -  16 20 mph 1011.8mb 61f 63f
9:20  -   -   -  16 20 mph 1011.7mb 61f 63f
9:10  -   -   -  16 20 mph 1011.8mb 60f 63f
9:00  -   -   -  16 18 mph 1011.8mb 60f 63f
8:50 4ft 9s 6s 16 18 mph 1011.7mb 61f 63f
8:40 4ft  -  6s 16 18 mph 1011.5mb 61f 63f
8:30  -   -   -  16 18 mph 1011.6mb 61f 62f
8:20  -   -   -  16 18 mph 1011.4mb 61f 62f
8:10  -   -   -  16 18 mph 1011.4mb 61f 62f
8:00  -   -   -  16 18 mph 1011.2mb 61f 62f
7:50 4.5ft 8s 6s 16 18 mph 1011.3mb 61f 62f
7:40 4.5ft  -  6s 16 20 mph 1011.2mb 61f 63f
7:30  -   -   -  18 20 mph 1011.1mb 61f 63f
7:20  -   -   -  18 22 mph 1011.1mb 61f 63f
7:10  -   -   -  18 22 mph 1011mb 61f 63f
7:00  -   -   -  16 20 mph 1010.9mb 61f 63f
6:50 4.5ft 9s 6s 18 20 mph 1010.8mb 61f 63f
6:40 4.5ft  -  6s 18 20 mph 1010.9mb 61f 62f
6:30  -   -   -  18 20 mph 1010.9mb 61f 62f
6:20  -   -   -  16 20 mph 1010.7mb 61f 62f
6:10  -   -   -  16 20 mph 1010.7mb 61f 62f
6:00  -   -   -  16 20 mph 1010.8mb - 62f
5:50 4.5ft 9s 6s 16 20 mph 1010.8mb 61f 62f
5:40 4.5ft  -  6s 16 20 mph 1010.8mb 61f 62f
5:30  -   -   -  16 20 mph 1010.7mb 61f 62f
5:20  -   -   -  16 20 mph 1010.7mb 61f 62f
5:10  -   -   -  16 18 mph 1010.8mb 61f 61f
5:00  -   -   -  16 18 mph 1010.9mb 61f 61f
4:50 5ft 9s 6s 16 18 mph 1010.9mb 61f 61f
4:40 5ft  -  6s 16 18 mph 1011mb 61f 61f
4:30  -   -   -  16 18 mph 1011mb 61f 61f
4:20  -   -   -  13 20 mph 1011mb 61f 61f
4:10  -   -   -  16 18 mph 1011mb 61f 61f
4:00  -   -   -  16 18 mph 1011mb 61f 61f
3:50 4.5ft 8s 6s 16 18 mph 1011mb 61f 61f
3:40 4.5ft  -  6s 16 20 mph 1011.1mb 61f 61f
3:30  -   -   -  16 18 mph 1011.1mb 61f 61f
3:20  -   -   -  16 20 mph 1011.1mb 61f 61f
3:10  -   -   -  16 18 mph 1011.2mb 61f 61f
3:00  -   -   -  16 18 mph 1011.3mb 61f 61f
2:50 4.5ft 9s 6s 13 18 mph 1011.4mb 61f 61f
2:40  -   -   -  13 16 mph 1011.5mb 61f 61f
2:30  -   -   -  13 16 mph 1011.5mb 61f 61f
2:20  -   -   -  13 16 mph 1011.6mb - 61f
2:10  -   -   -  13 16 mph 1011.6mb 61f 61f
2:00  -   -   -  13 16 mph 1011.7mb 61f 61f
1:50 4.5ft  -  6s 13 16 mph 1011.9mb - 61f
1:40 4.5ft 9s 6s  -  mph - 61f -
1:30  -   -   -  11 13 mph 1012.1mb 62f 61f
1:20  -   -   -  11 13 mph 1012.2mb 62f 61f
1:10  -   -   -  11 13 mph 1012.2mb 62f 61f
1:00  -   -   -  11 13 mph 1012.3mb 62f 61f
12:50 5ft 9s 6s 9 11 mph 1012.4mb 62f 60f
12:40  -   -   -  9 11 mph 1012.6mb 62f 60f
12:30  -   -   -  7 11 mph 1012.6mb 62f 60f
12:20  -   -   -  7 9 mph 1012.7mb 61f 60f
12:10  -   -   -  7 9 mph 1012.9mb 61f 60f
12:00  -   -   -  7 9 mph 1012.9mb - 60f
11:50 4.5ft 10s 6s 7 11 mph 1012.9mb 61f 60f
11:40 4.5ft  -  6s 9 9 mph 1012.7mb 61f 60f
11:30  -   -   -  9 11 mph 1012.8mb 61f 60f
11:20  -   -   -  9 11 mph 1012.8mb 61f 60f
11:10  -   -   -  9 11 mph 1012.8mb 61f 60f
11:00  -   -   -  9 11 mph 1012.9mb 61f 60f
10:50 5ft 9s 6s 7 9 mph 1012.6mb 61f 60f
10:40 5ft  -  6s 7 9 mph 1012.6mb - 60f
10:30  -   -   -  7 9 mph 1012.7mb 61f 60f
10:20  -   -   -  7 9 mph 1012.7mb 61f 60f
10:10  -   -   -  4 7 mph 1012.5mb 61f 60f
10:00  -   -   -  4 7 mph 1012.4mb 61f 60f
9:50 5ft 9s 6s 7 7 mph 1012.4mb 61f 60f
9:40  -   -   -  7 9 mph 1012.4mb 61f 60f
9:30  -   -   -  7 9 mph 1012.4mb 61f 60f
9:20  -   -   -  4 9 mph 1012.3mb 61f 60f
9:10  -   -   -  7 9 mph 1012.2mb 61f 60f
9:00  -   -   -  7 9 mph 1012.1mb 61f 60f
8:50 5ft 10s 6s 9 11 mph 1012.1mb 61f 60f
8:40 5ft  -  6s 9 11 mph 1012.1mb 61f 60f
8:30  -   -   -  7 9 mph 1012mb 61f 60f
8:20  -   -   -  7 9 mph 1011.8mb 61f 60f
8:10  -   -   -  7 9 mph 1011.8mb 61f 60f
8:00  -   -   -  7 11 mph 1011.7mb 61f 60f
7:50 4.5ft 10s 6s 9 11 mph 1011.5mb 61f 60f
7:40 4.5ft  -  6s 9 11 mph 1011.4mb 61f 60f
7:30  -   -   -  9 9 mph 1011.2mb - 60f
7:20  -   -   -  9 11 mph 1011.2mb 61f 60f
7:10  -   -   -  9 11 mph 1011.1mb 61f 60f
7:00  -   -   -  9 11 mph 1011mb 61f 60f
6:50 4.5ft 9s 6s 9 11 mph 1011mb 61f 59f
6:40 4.5ft  -  6s 9 11 mph 1010.8mb 61f 59f
6:30  -   -   -  9 11 mph 1010.8mb 61f 59f
6:20  -   -   -  9 11 mph 1010.7mb - 59f
6:10  -   -   -  9 11 mph 1010.7mb 61f 59f
6:00  -   -   -  9 13 mph 1010.6mb - 59f
5:50 4.5ft 9s 6s 9 11 mph 1010.6mb - 59f
5:40 4.5ft  -  6s 9 11 mph 1010.6mb 61f 59f
5:30  -   -   -  9 11 mph 1010.5mb 61f 59f
5:20  -   -   -  9 11 mph 1010.4mb 61f 60f
5:10  -   -   -  9 11 mph 1010.3mb 61f 60f
5:00  -   -   -  9 11 mph 1010.3mb 61f 60f
4:50 5ft 9s 6s 9 11 mph 1010.2mb 61f 60f
4:40  -   -   -  11 13 mph 1010.1mb 61f 60f
4:30  -   -   -  11 13 mph 1010.1mb 61f 60f
4:20  -   -   -  11 13 mph 1010.1mb 61f 60f
4:10  -   -   -  11 13 mph 1010mb 61f 60f
4:00  -   -   -  11 16 mph 1010mb 61f 59f
3:50 5ft 10s 6s 13 16 mph 1009.9mb 61f 59f
3:40 5ft  -  6s 13 18 mph 1010mb 61f 59f
3:30  -   -   -  13 18 mph 1010mb 61f 59f
3:20  -   -   -  13 16 mph 1010.2mb 61f 59f
3:10  -   -   -  13 16 mph 1010.2mb 61f 59f
3:00  -   -   -  13 18 mph 1010.2mb 61f 59f
2:50 5ft 10s 6s 16 18 mph 1010.2mb 61f 59f
2:40  -   -   -  16 18 mph 1010.3mb 61f 59f
2:30  -   -   -  16 18 mph 1010.3mb 61f 59f
2:20  -   -   -  16 18 mph 1010.3mb 60f 59f
2:10  -   -   -  16 20 mph 1010.3mb 60f 59f
2:00  -   -   -  16 20 mph 1010.3mb 60f 59f
1:50 5ft 10s 6s 16 20 mph 1010.3mb 60f 59f
1:40  -   -   -  16 20 mph 1010.3mb 60f 59f
1:30  -   -   -  16 20 mph 1010.3mb 60f 60f
1:20  -   -   -  16 20 mph 1010.2mb - 60f
1:10  -   -   -  16 22 mph 1010.2mb 60f 60f
1:00  -   -   -  16 20 mph 1010.3mb 60f 60f
12:50 5ft 10s 6s 18 22 mph 1010.3mb 60f 60f
12:40 5ft  -  6s 18 20 mph 1010.3mb 60f 60f
12:30  -   -   -  18 22 mph 1010.4mb 60f 60f
12:20  -   -   -  18 22 mph 1010.3mb - 60f
12:10  -   -   -  18 22 mph 1010.4mb 60f 60f
12:00  -   -   -  18 22 mph 1010.4mb 60f 60f
sam. 09/23 11:50 5ft 10s 6s 18 22 mph 1010.4mb 60f 60f
11:40 5ft  -  6s 18 22 mph 1010.6mb 60f 60f
11:30  -   -   -  20 25 mph 1010.6mb 60f 60f
11:20  -   -   -  20 25 mph 1010.5mb 60f 60f
11:10  -   -   -  20 22 mph 1010.5mb 60f 60f
11:00  -   -   -  18 22 mph 1010.5mb - 60f
10:50 5ft 10s 6s 18 22 mph 1010.6mb 60f 60f
10:40  -   -   -  18 22 mph 1010.5mb 60f 60f
10:30  -   -   -  18 22 mph 1010.4mb 60f 60f
10:20  -   -   -  18 22 mph 1010.4mb 60f 60f
10:10  -   -   -  18 20 mph 1010.5mb 60f 60f
10:00  -   -   -  18 22 mph 1010.6mb 60f 60f
9:50 5ft 10s 6s 18 22 mph 1010.5mb 60f 60f
9:40 5ft  -  6s 18 22 mph 1010.6mb 60f 60f
9:30  -   -   -  16 20 mph 1010.7mb 60f 60f
9:20  -   -   -  16 20 mph 1010.7mb 60f 60f
9:10  -   -   -  18 20 mph 1010.7mb 60f 60f
9:00  -   -   -  18 22 mph 1010.7mb 60f 60f
8:50 5.5ft 9s 6s 18 20 mph 1010.7mb 60f 60f
8:40 5.5ft  -  6s 16 20 mph 1010.7mb 60f 60f
8:30  -   -   -  16 20 mph 1010.7mb 59f 60f
8:20  -   -   -  18 20 mph 1010.7mb 59f 60f
8:10  -   -   -  18 22 mph 1010.7mb 59f 60f
8:00  -   -   -  16 20 mph 1010.6mb 59f 60f
7:50 6ft 10s 6s 16 20 mph 1010.6mb 60f 60f
7:40 6ft  -  6s 16 20 mph 1010.6mb 59f 60f
7:30  -   -   -  16 20 mph 1010.6mb 59f 60f
7:20  -   -   -  16 18 mph 1010.6mb 59f 60f
7:10  -   -   -  16 20 mph 1010.5mb 59f 60f
7:00  -   -   -  16 18 mph 1010.6mb 60f 60f
6:50 6ft 10s 6s 16 20 mph 1010.6mb - 60f
6:40  -   -   -  16 18 mph 1010.6mb 60f 60f
6:30  -   -   -  16 18 mph 1010.6mb 60f 60f
6:20  -   -   -  16 18 mph 1010.5mb 60f 60f
6:10  -   -   -  16 18 mph 1010.6mb - -
6:00  -   -   -  16 20 mph 1010.6mb 60f 60f
5:50 5.5ft 11s 6s 13 18 mph 1010.6mb 60f 60f
5:40 5.5ft  -  6s 13 18 mph 1010.7mb 60f 60f
5:30  -   -   -  13 18 mph 1010.6mb 60f 60f
5:20  -   -   -  13 18 mph 1010.7mb - 60f
5:10  -   -   -  11 16 mph 1010.7mb 60f 60f
5:00  -   -   -  11 16 mph 1010.7mb 60f 60f
4:50 6ft 11s 6s 13 18 mph 1010.7mb 60f 60f
4:40  -   -   -  16 20 mph 1010.7mb 60f 60f
4:30  -   -   -  16 20 mph 1010.7mb 60f 60f
4:20  -   -   -  16 20 mph 1010.7mb 60f 60f
4:10  -   -   -  18 20 mph 1010.7mb 60f 60f
4:00  -   -   -  18 22 mph 1010.6mb 60f 60f
3:50 5ft 10s 6s 18 25 mph 1010.7mb 60f 60f
3:40  -   -   -  20 22 mph 1010.7mb 60f 60f
3:30  -   -   -  20 22 mph 1010.7mb - 60f
3:20  -   -   -  20 25 mph 1010.7mb 60f 60f
3:10  -   -   -  20 27 mph 1010.8mb 60f 60f
3:00  -   -   -  20 25 mph 1010.9mb 60f 60f
2:50 5ft 10s 6s 20 25 mph 1011mb 60f 60f
2:40  -   -   -  20 25 mph 1011mb 60f 60f
2:30  -   -   -  20 25 mph 1010.9mb 60f 60f
2:20  -   -   -  20 25 mph 1010.9mb 60f 61f
2:10  -   -   -  20 25 mph 1011mb 60f 61f
2:00  -   -   -  20 22 mph 1010.9mb 60f 61f
1:50 6ft 10s 6s 20 25 mph 1010.8mb 60f 61f
1:40  -   -   -  20 25 mph 1010.7mb 60f 61f
1:30  -   -   -  20 25 mph 1010.8mb 60f 60f
1:20  -   -   -  18 22 mph 1010.9mb 60f 60f
1:10  -   -   -  20 25 mph 1011mb 60f 60f
1:00  -   -   -  20 25 mph 1011mb 60f 60f
12:50 5.5ft  -  6s 20 25 mph 1011.1mb 60f 60f
12:40 5.5ft 10s 6s  -  mph - - -
12:30  -   -   -  18 25 mph 1011.2mb 60f 61f
12:20  -   -   -  18 22 mph 1011.2mb 60f 61f
12:10  -   -   -  18 22 mph 1011.2mb 60f 60f
12:00  -   -   -  18 22 mph 1011.3mb 60f 60f
11:50 6ft 11s 6s 18 22 mph 1011.4mb 60f 60f
11:40 6ft  -  6s 18 22 mph 1011.5mb 60f 60f
11:30  -   -   -  18 20 mph 1011.5mb 60f 60f
11:20  -   -   -  18 20 mph 1011.5mb 60f 60f
11:10  -   -   -  18 20 mph 1011.6mb 60f 60f
11:00  -   -   -  16 20 mph 1011.6mb 60f 60f
10:50 5ft 11s 6s 13 18 mph 1011.6mb 60f 60f
10:40  -   -   -  13 18 mph 1011.8mb 60f 60f
10:30  -   -   -  16 20 mph 1011.6mb 60f 61f
10:20  -   -   -  16 18 mph 1011.6mb 60f 61f
10:10  -   -   -  13 18 mph 1011.6mb 61f 61f
10:00  -   -   -  13 18 mph 1011.5mb 61f 61f
9:50 5ft 11s 6s 13 16 mph 1011.4mb 61f 60f
9:40  -   -   -  16 18 mph 1011.3mb 61f 60f
9:30  -   -   -  13 18 mph 1011.1mb 61f 60f
9:20  -   -   -  13 18 mph 1011.2mb 61f 60f
9:10  -   -   -  16 18 mph 1011.1mb 61f 59f
9:00  -   -   -  13 18 mph 1011.1mb 61f 59f
8:50 5.5ft 11s 6s 13 16 mph 1011mb 61f 59f
8:40  -   -   -  13 18 mph 1011mb 61f 60f
8:30  -   -   -  13 18 mph 1010.9mb 61f 60f
8:20  -   -   -  13 16 mph 1010.8mb 61f 60f
8:10  -   -   -  16 18 mph 1010.8mb 61f 60f
8:00  -   -   -  16 20 mph 1010.7mb 61f 60f
7:50 6ft 11s 6s 18 20 mph 1010.5mb 61f 59f
7:40  -   -   -  18 22 mph 1010.4mb 61f 59f
7:30  -   -   -  18 22 mph 1010.4mb 61f 59f
7:20  -   -   -  18 22 mph 1010.2mb 61f 59f
7:10  -   -   -  18 22 mph 1010mb 61f 59f
7:00  -   -   -  18 20 mph 1010mb 61f 59f
6:50 6ft 11s 6s 18 22 mph 1009.8mb 61f 59f
6:40 6ft  -  6s 18 22 mph 1009.7mb 61f 59f
6:30  -   -   -  20 22 mph 1009.7mb 61f 59f
6:20  -   -   -  18 22 mph 1009.6mb 61f 59f
6:10  -   -   -  18 22 mph 1009.7mb - 59f
6:00  -   -   -  18 22 mph 1009.6mb - 59f
5:50 6ft 11s 6s 20 25 mph 1009.4mb 61f 59f
5:40 6ft  -  6s 20 25 mph 1009.2mb 61f 59f
5:30  -   -   -  20 25 mph 1009.3mb 62f 59f
5:20  -   -   -  20 25 mph 1009.1mb 62f 59f
5:10  -   -   -  22 27 mph 1009.1mb 62f 59f
5:00  -   -   -  22 27 mph 1009.2mb 62f 59f
4:50 6ft 11s 6s 22 27 mph 1009.2mb 62f 59f
4:40  -   -   -  22 27 mph 1009.2mb 62f 58f
4:30  -   -   -  22 27 mph 1009.2mb 62f 59f
4:20  -   -   -  22 27 mph 1009.3mb 62f 58f
4:10  -   -   -  22 25 mph 1009.3mb 62f 59f
4:00  -   -   -  22 27 mph 1009.3mb 62f 59f
3:50 5.5ft 11s 6s 20 27 mph 1009.4mb 62f 59f
3:40 5.5ft  -  6s 22 25 mph 1009.5mb 62f 59f
3:30  -   -   -  20 27 mph 1009.5mb 62f 59f
3:20  -   -   -  22 27 mph 1009.4mb 62f 59f
3:10  -   -   -  22 27 mph 1009.4mb 62f 59f
3:00  -   -   -  22 29 mph 1009.4mb 62f 59f
2:50 5ft 11s 6s 22 27 mph 1009.6mb 62f 59f
2:40 5ft  -  6s 22 27 mph 1009.6mb 62f 59f
2:30  -   -   -  22 27 mph 1009.6mb 62f 59f
2:20  -   -   -  22 27 mph 1009.6mb 62f 59f
2:10  -   -   -  22 29 mph 1009.7mb 62f 59f
2:00  -   -   -  22 27 mph 1009.7mb 62f 59f
1:50 5ft 11s 6s 22 27 mph 1009.6mb 62f 59f
1:40 5ft  -  6s 22 29 mph 1009.7mb 62f 59f
1:30  -   -   -  22 27 mph 1009.7mb 62f 59f
1:20  -   -   -  22 27 mph 1009.7mb 62f 59f
1:10  -   -   -  22 27 mph 1009.8mb 62f 59f
1:00  -   -   -  22 27 mph 1009.8mb 62f 59f
12:50 5ft 11s 6s 20 25 mph 1009.9mb 62f 59f
12:40 5ft  -  6s 20 27 mph 1009.9mb 62f 59f
12:30  -   -   -  20 25 mph 1010mb - 59f
12:20  -   -   -  20 22 mph 1010mb 62f 59f
12:10  -   -   -  20 27 mph 1010.1mb - 59f
12:00  -   -   -  20 25 mph 1010.1mb 62f 59f
ven. 09/22 11:50 4.5ft 11s 6s 18 22 mph 1010.1mb 62f 59f
11:40 4.5ft  -  6s 18 22 mph 1010.1mb 62f 60f
11:30  -   -   -  18 22 mph 1010.2mb 62f 60f
11:20  -   -   -  18 22 mph 1010.2mb 62f 60f
11:10  -   -   -  20 22 mph 1010.2mb 62f 60f
11:00  -   -   -  18 22 mph 1010.3mb 62f 60f
10:50 5ft 10s 6s 18 22 mph 1010.3mb 62f 60f
10:40 5ft  -  6s 18 22 mph 1010.4mb 62f 60f
10:30  -   -   -  18 22 mph 1010.4mb 62f 60f
10:20  -   -   -  18 22 mph 1010.5mb 62f 60f
10:10  -   -   -  18 25 mph 1010.5mb 62f 60f
10:00  -   -   -  20 22 mph 1010.5mb 62f 60f
9:50 5ft 11s 6s 18 22 mph 1010.5mb 62f 60f
9:40  -   -   -  18 22 mph 1010.5mb 62f 60f
9:30  -   -   -  18 22 mph 1010.7mb 62f 60f
9:20  -   -   -  18 25 mph 1010.7mb 62f 60f
9:10  -   -   -  18 22 mph 1010.7mb 62f 60f
9:00  -   -   -  20 25 mph 1010.7mb 62f 60f
8:50 5.5ft 10s 6s 18 22 mph 1010.7mb 62f 60f
8:40 5.5ft  -  6s 20 25 mph 1010.6mb 62f 60f
8:30  -   -   -  18 22 mph 1010.6mb 62f 60f
8:20  -   -   -  18 22 mph 1010.5mb 62f 60f
8:10  -   -   -  18 22 mph 1010.5mb 62f 60f
8:00  -   -   -  18 25 mph 1010.4mb 62f 60f
7:50 6ft 11s 6s 18 22 mph 1010.3mb 62f 60f
7:40  -   -   -  18 22 mph 1010.3mb 62f 60f
7:30  -   -   -  20 25 mph 1010.2mb 62f 60f
7:20  -   -   -  20 25 mph 1010mb 62f 60f
7:10  -   -   -  20 25 mph 1010mb 62f 61f
7:00  -   -   -  22 27 mph 1010mb 62f 61f
6:50 6ft 11s 6s 20 25 mph 1010.1mb 62f 61f
6:40 6ft  -  6s 20 25 mph 1010.2mb 62f 61f
6:30  -   -   -  20 25 mph 1010.2mb 62f 61f
6:20  -   -   -  20 22 mph 1010.1mb 62f 61f
6:10  -   -   -  20 25 mph 1010.1mb 62f 61f
6:00  -   -   -  20 25 mph 1010.2mb 62f 61f
5:50 5.5ft 11s 6s 20 25 mph 1010.1mb 62f 61f
5:40 5.5ft  -  6s 20 27 mph 1010.1mb 62f 61f
5:30  -   -   -  20 25 mph 1010.2mb 62f 61f
5:20  -   -   -  22 27 mph 1010mb 62f -
5:10  -   -   -  22 27 mph 1010mb 62f 61f
5:00  -   -   -  22 27 mph 1010mb 62f 61f
4:50 5.5ft 10s 6s 22 27 mph 1010.1mb 62f 61f
4:40  -   -   -  20 25 mph 1010.3mb 62f 61f
4:20  -   -   -  18 22 mph 1010.5mb 62f 61f
4:10  -   -   -  20 22 mph 1010.5mb 62f 61f
4:00  -   -   -  20 25 mph 1010.6mb 62f 61f
3:50 5.5ft 11s 6s 20 25 mph 1010.7mb 62f 61f
3:40  -   -   -  20 25 mph 1010.7mb 62f 61f
3:30  -   -   -  20 22 mph 1011mb 62f 61f
3:20  -   -   -  20 25 mph 1011mb 62f 61f
3:10  -   -   -  22 27 mph 1011mb 62f 61f
3:00  -   -   -  20 27 mph 1011.2mb 62f 61f
2:50 5ft 10s 6s 18 25 mph 1011.4mb 62f 61f
2:40 5ft  -  6s 18 22 mph 1011.6mb 62f 61f
2:30  -   -   -  18 22 mph 1011.6mb 62f 61f
2:20  -   -   -  20 22 mph 1011.6mb 62f 60f
2:10  -   -   -  20 25 mph 1011.7mb 62f 60f
2:00  -   -   -  18 22 mph 1011.8mb 62f 61f
1:50 5.5ft 11s 7s 18 22 mph 1011.8mb 62f 61f
1:40 5.5ft  -  7s 18 22 mph 1012mb 62f 61f
1:30  -   -   -  18 22 mph 1012.1mb 62f 61f
1:20  -   -   -  20 25 mph 1012.1mb 62f 61f
1:10  -   -   -  20 25 mph 1012.1mb - 61f
1:00  -   -   -  20 25 mph 1012.2mb 62f 61f
12:50 6ft 11s 7s 18 22 mph 1012.2mb - 60f
12:40 6ft  -  7s 18 22 mph 1012.4mb 62f 60f
12:30  -   -   -  18 22 mph 1012.4mb 62f 60f
12:20  -   -   -  18 20 mph 1012.5mb 62f 60f
12:10  -   -   -  18 22 mph 1012.5mb 61f 60f
12:00  -   -   -  18 22 mph 1012.5mb 61f 60f
11:50 5.5ft 9s 6s 18 22 mph 1012.6mb 61f 60f
11:40 5.5ft  -  6s 18 22 mph 1012.6mb 61f 60f
11:30  -   -   -  18 22 mph 1012.7mb 61f 60f
11:20  -   -   -  20 22 mph 1012.6mb 61f 60f
11:10  -   -   -  18 22 mph 1012.6mb 61f 59f
11:00  -   -   -  16 20 mph 1012.8mb 61f 59f
10:50 6ft 11s 6s 16 20 mph 1012.9mb 61f 59f
10:40 6ft  -  6s 16 20 mph 1012.9mb 61f 59f
10:30  -   -   -  16 20 mph 1013mb 61f 59f
10:20  -   -   -  16 20 mph 1013mb 61f 59f
10:10  -   -   -  16 20 mph 1013.1mb 61f 59f
10:00  -   -   -  16 20 mph 1013.1mb 61f 59f
9:50 5.5ft 11s 6s 16 18 mph 1013.1mb 61f 59f
9:40 5.5ft  -  6s 16 20 mph 1013mb - 59f
9:30  -   -   -  16 20 mph 1013mb 61f 59f
9:20  -   -   -  18 20 mph 1013mb 61f 59f
9:10  -   -   -  18 22 mph 1012.8mb 61f 59f
9:00  -   -   -  18 22 mph 1012.8mb 61f 59f
8:50 6ft 11s 6s 18 22 mph 1012.6mb - 59f
8:40 6ft  -  6s 18 20 mph 1012.6mb 61f 59f
8:30  -   -   -  18 20 mph 1012.4mb 61f 59f
8:20  -   -   -  18 22 mph 1012.3mb 61f 59f
8:10  -   -   -  18 22 mph 1012.2mb 61f 59f
8:00  -   -   -  18 22 mph 1012.1mb 61f 58f
7:50 5.5ft 11s 6s 18 20 mph 1012.2mb 61f 58f
7:40 5.5ft  -  6s 18 22 mph 1012.2mb 61f 58f
7:30  -   -   -  18 22 mph 1012.1mb 61f 58f
7:20  -   -   -  16 20 mph 1012.1mb 61f 59f
7:10  -   -   -  18 22 mph 1012mb 61f 58f
7:00  -   -   -  18 22 mph 1012mb 61f 59f
6:50 6ft 11s 6s 20 22 mph 1011.9mb 61f 59f
6:40 6ft  -  6s 20 25 mph 1011.8mb 61f 59f
6:30  -   -   -  20 27 mph 1011.7mb 61f 59f
6:20  -   -   -  20 27 mph 1011.7mb 61f 59f
6:10  -   -   -  22 29 mph 1011.5mb 61f 59f
6:00  -   -   -  25 29 mph 1011.4mb 61f 59f
5:50 7ft 11s 6s 22 29 mph 1011.2mb 61f 59f
5:40 7ft  -  6s 25 29 mph 1011.1mb 61f 59f
5:30  -   -   -  25 31 mph 1011mb 61f 59f
5:20  -   -   -  25 29 mph 1011.1mb 61f 59f
5:10  -   -   -  25 29 mph 1011.2mb 61f 59f
5:00  -   -   -  25 29 mph 1011.1mb 61f 59f
4:50 8ft 11s 6s 25 29 mph 1011.1mb 61f 59f
4:40 8ft  -  6s 25 29 mph 1011.1mb 61f 59f
4:30  -   -   -  22 29 mph 1011.2mb 61f 59f
4:20  -   -   -  25 31 mph 1011.1mb 61f 59f
4:10  -   -   -  25 29 mph 1011.1mb 61f 59f
4:00  -   -   -  25 31 mph 1011.1mb 61f 59f
3:50 8ft 8s 7s 25 29 mph 1011.1mb 61f 59f
3:40 8ft  -  7s 22 29 mph 1011.2mb 61f 59f
3:30  -   -   -  25 29 mph 1011.2mb 61f 59f
3:20  -   -   -  22 27 mph 1011.3mb 61f 59f
3:10  -   -   -  22 31 mph 1011.3mb 61f 59f
3:00  -   -   -  25 29 mph 1011.4mb 62f 59f
2:50 8ft 11s 7s 25 29 mph 1011.5mb 62f 59f
2:40 8ft  -  7s 25 31 mph 1011.4mb 62f 59f
2:30  -   -   -  22 29 mph 1011.5mb 62f 59f
2:20  -   -   -  22 29 mph 1011.6mb 62f 59f
2:10  -   -   -  22 31 mph 1011.5mb 62f 59f